DMSP 5D-2 F13 DEB

Satellite information

Favourite Embed

Satellite Type and Status

DEBRISIN ORBIT

Key statistics

Satellite DMSP 5D-2 F13 DEB at a glance.

Uptime

11001

Days in orbit

Revolutions

≈ 14.4

Per day

Orbit

SSO

Sun Synchronous Orbit

Inclination

98.7

Latest

Satellite identification and parameters

Extended collection of information and parameters for DMSP 5D-2 F13 DEB.

Object identification

Identified? True

Debris? True

Object name: DMSP 5D-2 F13 DEB

International designator: 1995-015CL

Object number (NORAD): 40497

Object ID (CCSDS): 40497

Country: UNITED STATES OF AMERICA (US)

Current information (Y/N): Y

RCS size: SMALL

Orbital parameters

Period: 100.169 minutes

Inclination: 98.6939 deg

SMA: 7144.659 km

Apoapsis: 771.505 km

Periapsis: 761.544 km

RAAN: 156.3858 deg

Eccentricy: 0.0006971

Argument of periapsis: 128.9893 deg

Mean anomaly: 231.1915 deg

Mean motion: 14.37574877 rev/day

Mean motion (dot): 0.00006875 rev/day2

B* drag term: 0.002305 1/REarth

Two-line elements (TLE)

Creation date: May 6, 2025, 3:54 a.m.

Reference frame: TEME

Reference center: EARTH

Epoch: May 5, 2025, 7:52 a.m. UTC

TLE line 0: 0 DMSP 5D-2 F13 DEB

TLE line 1: 1 40497U 95015CL 25125.32779118 .00006875 00000-0 23050-2 0 9995

TLE line 2: 2 40497 98.6939 156.3858 0006971 128.9893 231.1915 14.37574877526704

Live tracking on map

Real-time ground track for satellite DMSP 5D-2 F13 DEB.

In-orbit conjunctions

A list of the most updated potential collisions computed for object DMSP 5D-2 F13 DEB.

Target Orbit TCA Probability of collision Miss distance Type
COSMOS 1624 LEO 2025-01-08 09:20:22 0.0001397668 417.0 (m) PAYLOAD
IRIDIUM 33 LEO 2025-01-06 02:34:44 0.001245541 111.0 (m) PAYLOAD
EYESAT A SSO 2024-06-03 17:47:36 0.0001135188 482.0 (m) PAYLOAD

Associated space launch

Military meteorological satellite

DMSP 5D-2 F13 DEB was lifted into orbit during the mission ‘Atlas E | DMSP-5D2 F13’, on board a Atlas E space rocket.

The launch took place on March 24, 1995, 2:05 p.m. from Space Launch Complex 3W.

For more information about the launch, click the button.

Launch to space Atlas E | DMSP-5D2 F13
Atlas E | DMSP-5D2 F13

Agency: N/A

Status: Launch Successful

Launch date: March 24, 1995, 2:05 p.m. UTC

Rocket: Atlas E

Launch pad: Space Launch Complex 3W

Location: Vandenberg SFB, CA, USA

...

Latest news about this satellite

There are no fresh news available about this satellite. Check back as we update our databases every day.


Newsletter sign-up

Weekly statistics, charts and insights to help you stay on top of the space industry.